Weather History for Dewar Lakes, NU

Change the Weather History Date:

Thursday, September 6, 2012

  Actual Average Record
Temperature  
Mean Temperature 28 °F -  
Max Temperature 30 °F 33 °F 48 °F (2010)
Min Temperature 26 °F 27 °F 23 °F (1996)
Degree Days  
Heating Degree Days 37    
Moisture  
Dew Point -    
Average Humidity    
Maximum Humidity    
Minimum Humidity    
Precipitation  
Precipitation 0.00 in - - ()
Sea Level Pressure  
Sea Level Pressure 29.99 in    
Wind  
Wind Speed 9 mph ()    
Max Wind Speed 14 mph    
Max Gust Speed -    
Averages and records for this station are not official NWS values.
T = Trace of Precipitation, MM = Missing Value Source: Averaged Metar Reports

Daily Weather History Graph

Daily Weather History Graph

Search for Another Location

Airport:

Trip Planner

Search our weather history database for the weather conditions in past years. The results will help you decide how hot, cold, wet, or windy it might be!

Date:

Astronomy

Sep. 06, 2012 Rise Set
Actual Time 5:28 AM EDT 7:54 PM EDT
Civil Twilight 4:24 AM EDT 8:57 PM EDT
Nautical Twilight 2:47 AM EDT 10:31 PM EDT
Astronomical Twilight Sun does not rise Sun does not rise
Moon 6:58 PM EDT (9/6) 3:26 PM EDT (9/6)
Length of Visible Light 16h 33m
Length of Day
14h 26m
Waning Gibbous, 67% of the Moon is Illuminated
Sep 6
Waning Gibbous
Sep 8
Last Quarter
Sep 15
New
Sep 22
First Quarter
Sep 29
Full

Hourly Weather History & Observations

Time (EDT) Temp. Windchill Dew Point Humidity Pressure Visibility Wind Dir Wind Speed Gust Speed Precip Events Conditions
12:00 AM 30.2 °F 21.9 °F - N/A% 30.05 in - West 9.2 mph - N/A   Clear
1:00 AM 30.2 °F 22.6 °F - N/A% 30.06 in - WNW 8.1 mph - N/A   Clear
1:53 AM 30.2 °F 21.3 °F - N/A% 29.93 in - West 10.4 mph - N/A   Clear
1:59 AM 30.2 °F 20.2 °F - N/A% 29.93 in - West 12.7 mph - N/A   Clear
2:00 AM 29 °F - - % 30.05 in - West 10.4 mph - -  
2:00 AM 30.2 °F 20.2 °F - N/A% 30.05 in - West 12.7 mph - N/A   Clear
3:00 AM 28.4 °F 19.7 °F - N/A% 30.06 in - West 9.2 mph - N/A   Clear
4:00 AM 28.4 °F 19.7 °F - N/A% 30.06 in - West 9.2 mph - N/A   Overcast
4:27 AM 28.4 °F 19.7 °F - N/A% 29.94 in - West 9.2 mph - N/A   Overcast
4:32 AM 28.4 °F 19.7 °F - N/A% 29.94 in - West 9.2 mph - N/A   Overcast
5:00 AM 28 °F - - % 30.07 in - West 8.1 mph - -   Overcast
5:00 AM 28.4 °F 19.7 °F - N/A% 30.07 in - West 9.2 mph - N/A   Overcast
6:00 AM 28.4 °F 22.2 °F - N/A% 30.08 in - SW 5.8 mph - N/A   Overcast
6:07 AM 28.4 °F 21.2 °F - N/A% 29.95 in - WSW 6.9 mph - N/A   Overcast
6:11 AM 28.4 °F 22.2 °F - N/A% 29.95 in - SW 5.8 mph - N/A   Overcast
6:28 AM 28.4 °F 22.2 °F - N/A% 29.95 in - WSW 5.8 mph - N/A   Clear
6:46 AM 26.6 °F 18.2 °F - N/A% 29.95 in - WSW 8.1 mph - N/A   Clear
6:55 AM 28.4 °F 19.7 °F - N/A% 29.95 in - West 9.2 mph - N/A Snow Light Snow
7:00 AM 26.6 °F 18.2 °F - N/A% 30.08 in - WSW 8.1 mph - N/A Snow Light Snow
7:18 AM 28.4 °F 18.5 °F - N/A% 29.96 in - West 11.5 mph - N/A   Clear
7:19 AM 26.6 °F 16.8 °F - N/A% 29.96 in - West 10.4 mph - N/A   Clear
7:20 AM 28.4 °F 19.7 °F - N/A% 29.96 in - West 9.2 mph - N/A   Light Freezing Rain
7:26 AM 26.6 °F 16.8 °F - N/A% 29.96 in - West 10.4 mph - N/A   Light Freezing Rain
7:27 AM 26.6 °F 16.2 °F - N/A% 29.96 in - West 11.5 mph - N/A   Clear
7:53 AM 26.6 °F 16.8 °F - N/A% 29.95 in - WSW 10.4 mph - N/A Snow Light Snow
8:00 AM 27 °F - - % 30.08 in - WSW 9.2 mph - -   Overcast
8:00 AM 26.6 °F 18.2 °F - N/A% 30.08 in - WSW 8.1 mph - N/A Snow Light Snow
8:15 AM 26.6 °F 15.7 °F - N/A% 29.96 in - West 12.7 mph - N/A Snow Light Snow
8:30 AM 26.6 °F 16.8 °F - N/A% 29.96 in - West 10.4 mph - N/A   Overcast
8:47 AM 26.6 °F 15.7 °F - N/A% 29.96 in - West 12.7 mph - N/A   Overcast
8:51 AM 26.6 °F 16.2 °F - N/A% 29.96 in - West 11.5 mph - N/A   Overcast
9:00 AM 26.6 °F 16.2 °F - N/A% 30.09 in - West 11.5 mph - N/A   Overcast
9:07 AM 26.6 °F 16.2 °F - N/A% 29.96 in - West 11.5 mph - N/A   Overcast
9:15 AM 26.6 °F 16.2 °F - N/A% 29.96 in - West 11.5 mph - N/A   Overcast
9:18 AM 26.6 °F 16.2 °F - N/A% 29.96 in - West 11.5 mph - N/A Snow Light Snow
9:36 AM 26.6 °F 16.2 °F - N/A% 29.96 in - West 11.5 mph - N/A   Overcast
9:37 AM 26.6 °F 16.8 °F - N/A% 29.96 in - West 10.4 mph - N/A   Overcast
9:46 AM 26.6 °F 15.7 °F - N/A% 29.96 in - West 12.7 mph - N/A   Overcast
9:49 AM 26.6 °F 15.7 °F - N/A% 29.96 in - West 12.7 mph - N/A   Overcast
9:51 AM 26.6 °F 16.2 °F - N/A% 29.96 in - West 11.5 mph - N/A   Overcast
9:57 AM 26.6 °F 15.7 °F - N/A% 29.96 in - West 12.7 mph - N/A   Overcast
10:00 AM 26.6 °F 15.7 °F - N/A% 30.09 in - West 12.7 mph - N/A   Overcast
10:07 AM 26.6 °F 15.7 °F - N/A% 29.96 in - West 12.7 mph - N/A Snow Light Snow
10:10 AM 26.6 °F 15.7 °F - N/A% 29.96 in - West 12.7 mph - N/A Snow Light Snow
10:15 AM 26.6 °F 15.7 °F - N/A% 29.96 in - West 12.7 mph - N/A Snow Light Snow
10:23 AM 26.6 °F 15.2 °F - N/A% 29.96 in - West 13.8 mph - N/A   Overcast
10:25 AM 26.6 °F 15.2 °F - N/A% 29.96 in - West 13.8 mph - N/A   Overcast
10:54 AM 26.6 °F 15.7 °F - N/A% 29.96 in - West 12.7 mph - N/A Snow Light Snow
11:00 AM 27 °F - - % 30.09 in - West 11.5 mph - - Snow Light Snow
11:00 AM 26.6 °F 16.2 °F - N/A% 30.09 in - West 11.5 mph - N/A Snow Light Snow
11:06 AM 28.4 °F 18.0 °F - N/A% 29.96 in - West 12.7 mph - N/A Snow Light Snow
11:09 AM 26.6 °F 15.7 °F - N/A% 29.96 in - West 12.7 mph - N/A   Overcast
11:10 AM 28.4 °F 18.0 °F - N/A% 29.96 in - West 12.7 mph - N/A   Overcast
11:18 AM 26.6 °F 17.5 °F - N/A% 29.96 in - West 9.2 mph - N/A   Overcast
11:20 AM 26.6 °F 16.8 °F - N/A% 29.96 in - West 10.4 mph - N/A   Overcast
11:27 AM 28.4 °F 18.5 °F - N/A% 29.96 in - West 11.5 mph - N/A   Overcast
11:38 AM 28.4 °F 17.5 °F - N/A% 29.96 in - West 13.8 mph - N/A   Overcast
11:48 AM 26.6 °F 15.2 °F - N/A% 29.96 in - West 13.8 mph - N/A   Overcast
11:51 AM 26.6 °F 15.7 °F - N/A% 29.96 in - West 12.7 mph - N/A Snow Light Snow
11:53 AM 26.6 °F 16.8 °F - N/A% 29.96 in - West 10.4 mph - N/A   Overcast
12:00 PM 26.6 °F 16.2 °F - N/A% 30.09 in - West 11.5 mph - N/A   Overcast
12:30 PM 26.6 °F 17.5 °F - N/A% 29.96 in - West 9.2 mph - N/A   Overcast
12:34 PM 26.6 °F 15.7 °F - N/A% 29.96 in - West 12.7 mph - N/A Snow Light Snow
12:35 PM 26.6 °F 16.2 °F - N/A% 29.96 in - West 11.5 mph - N/A Snow Light Snow
12:37 PM 28.4 °F 18.5 °F - N/A% 29.95 in - West 11.5 mph - N/A Snow Light Snow
12:47 PM 26.6 °F 16.8 °F - N/A% 29.96 in - West 10.4 mph - N/A   Overcast
1:00 PM 26.6 °F 16.8 °F - N/A% 30.09 in - West 10.4 mph - N/A   Overcast
1:20 PM 26.6 °F 16.8 °F - N/A% 29.96 in - West 10.4 mph - N/A   Overcast
1:24 PM 26.6 °F 16.8 °F - N/A% 29.96 in - West 10.4 mph - N/A   Overcast
1:39 PM 26.6 °F 17.5 °F - N/A% 29.96 in - West 9.2 mph - N/A   Overcast
1:44 PM 28.4 °F 19.1 °F - N/A% 29.95 in - West 10.4 mph - N/A   Overcast
1:59 PM 28.4 °F 18.5 °F - N/A% 29.95 in - WSW 11.5 mph - N/A   Overcast
2:00 PM 28 °F - - % 30.08 in - West 10.4 mph - -   Overcast
2:00 PM 28.4 °F 18.5 °F - N/A% 30.08 in - WSW 11.5 mph - N/A   Overcast
2:11 PM 28.4 °F 20.4 °F - N/A% 29.95 in - West 8.1 mph - N/A   Overcast
2:14 PM 28.4 °F 18.5 °F - N/A% 29.95 in - West 11.5 mph - N/A   Overcast
2:22 PM 28.4 °F 20.4 °F - N/A% 29.95 in - WNW 8.1 mph - N/A   Overcast
2:25 PM 28.4 °F 19.1 °F - N/A% 29.95 in - WNW 10.4 mph - N/A Snow Light Snow
2:50 PM 28.4 °F 19.7 °F - N/A% 29.96 in - West 9.2 mph - N/A   Overcast
2:57 PM 28.4 °F 19.7 °F - N/A% 29.96 in - West 9.2 mph - N/A   Overcast
3:00 PM 28.4 °F 19.7 °F - N/A% 30.09 in - West 9.2 mph - N/A   Overcast
3:05 PM 28.4 °F 20.4 °F - N/A% 29.96 in - West 8.1 mph - N/A   Overcast
3:20 PM 28.4 °F 20.4 °F - N/A% 29.96 in - WNW 8.1 mph - N/A   Overcast
3:59 PM 28.4 °F 20.4 °F - N/A% 29.97 in - West 8.1 mph - N/A   Overcast
4:00 PM 28.4 °F 20.4 °F - N/A% 30.09 in - West 8.1 mph - N/A   Overcast
4:14 PM 28.4 °F 19.1 °F - N/A% 29.96 in - WNW 10.4 mph - N/A   Overcast
5:00 PM 29 °F - - % 30.10 in - WNW 10.4 mph - -   Overcast
5:00 PM 28.4 °F 19.1 °F - N/A% 30.10 in - WNW 10.4 mph - N/A   Overcast
6:00 PM 30.2 °F 21.3 °F - N/A% 30.10 in - NW 10.4 mph - N/A   Overcast
7:00 PM 30.2 °F 23.4 °F - N/A% 30.10 in - WNW 6.9 mph - N/A   Overcast
7:05 PM 30.2 °F 21.9 °F - N/A% 29.97 in - WNW 9.2 mph - N/A   Overcast
7:09 PM 30.2 °F 22.6 °F - N/A% 29.97 in - West 8.1 mph - N/A   Overcast
7:12 PM 30.2 °F 23.4 °F - N/A% 29.97 in - West 6.9 mph - N/A   Overcast
7:16 PM 30.2 °F 23.4 °F - N/A% 29.97 in - West 6.9 mph - N/A   Mostly Cloudy
7:22 PM 30.2 °F 22.6 °F - N/A% 29.98 in - NW 8.1 mph - N/A   Overcast
7:25 PM 28.4 °F 20.4 °F - N/A% 29.98 in - NNW 8.1 mph - N/A   Overcast
7:27 PM 28.4 °F 21.2 °F - N/A% 29.98 in - NNW 6.9 mph - N/A   Overcast
7:30 PM 28.4 °F 21.2 °F - N/A% 29.98 in - NNW 6.9 mph - N/A   Overcast
7:31 PM 28.4 °F 21.2 °F - N/A% 29.98 in - NNW 6.9 mph - N/A   Mostly Cloudy
7:33 PM 28.4 °F 21.2 °F - N/A% 29.98 in - NNW 6.9 mph - N/A   Overcast
7:44 PM 28.4 °F 22.2 °F - N/A% 29.98 in - WNW 5.8 mph - N/A   Overcast
7:48 PM 28.4 °F 23.3 °F - N/A% 29.98 in - West 4.6 mph - N/A   Overcast
7:55 PM 28.4 °F 21.2 °F - N/A% 29.98 in - West 6.9 mph - N/A   Overcast
7:56 PM 28.4 °F 22.2 °F - N/A% 29.98 in - WNW 5.8 mph - N/A   Overcast
8:00 PM 28 °F - - % 30.11 in - WNW 5.8 mph - -   Overcast
8:00 PM 28.4 °F 22.2 °F - N/A% 30.11 in - WNW 5.8 mph - N/A   Overcast
8:06 PM 28.4 °F 24.6 °F - N/A% 29.98 in - West 3.5 mph - N/A   Overcast
8:44 PM 28.4 °F 21.2 °F - N/A% 29.98 in - West 6.9 mph - N/A   Overcast
8:45 PM 28.4 °F 21.2 °F - N/A% 29.98 in - West 6.9 mph - N/A   Overcast
8:46 PM 28.4 °F 21.2 °F - N/A% 29.98 in - West 6.9 mph - N/A   Overcast
9:00 PM 28.4 °F 22.2 °F - N/A% 30.11 in - West 5.8 mph - N/A   Overcast
9:11 PM 28.4 °F 23.3 °F - N/A% 29.98 in - West 4.6 mph - N/A   Scattered Clouds
9:13 PM 28.4 °F 24.6 °F - N/A% 29.98 in - WSW 3.5 mph - N/A   Mostly Cloudy
9:18 PM 28.4 °F 24.6 °F - N/A% 29.98 in - West 3.5 mph - N/A   Overcast
9:20 PM 28.4 °F 24.6 °F - N/A% 29.98 in - West 3.5 mph - N/A   Overcast
9:33 PM 28.4 °F 23.3 °F - N/A% 29.98 in - WSW 4.6 mph - N/A   Overcast
9:41 PM 28.4 °F 24.6 °F - N/A% 29.98 in - West 3.5 mph - N/A   Overcast
9:42 PM 28.4 °F 24.6 °F - N/A% 29.98 in - West 3.5 mph - N/A   Overcast
9:44 PM 28.4 °F 23.3 °F - N/A% 29.98 in - West 4.6 mph - N/A   Overcast
9:52 PM 28.4 °F 23.3 °F - N/A% 29.98 in - West 4.6 mph - N/A   Mostly Cloudy
9:57 PM 28.4 °F 23.3 °F - N/A% 29.98 in - West 4.6 mph - N/A   Overcast
9:58 PM 28.4 °F 21.2 °F - N/A% 29.98 in - West 6.9 mph - N/A   Overcast
10:00 PM 28.4 °F 20.4 °F - N/A% 30.11 in - West 8.1 mph - N/A   Overcast
10:13 PM 28.4 °F 21.2 °F - N/A% 29.98 in - WNW 6.9 mph - N/A   Overcast
10:18 PM 28.4 °F 21.2 °F - N/A% 29.98 in - WNW 6.9 mph - N/A   Clear
10:22 PM 28.4 °F 21.2 °F - N/A% 29.98 in - West 6.9 mph - N/A Snow Light Snow
10:29 PM 28.4 °F 21.2 °F - N/A% 29.98 in - West 6.9 mph - N/A Snow Light Snow
10:31 PM 28.4 °F 21.2 °F - N/A% 29.98 in - West 6.9 mph - N/A Snow Light Snow
10:44 PM 28.4 °F 23.3 °F - N/A% 29.98 in - WNW 4.6 mph - N/A Snow Light Snow
10:45 PM 28.4 °F 23.3 °F - N/A% 29.98 in - WNW 4.6 mph - N/A   Overcast
11:00 PM 28 °F - - % 30.11 in - West 5.8 mph - -   Overcast
11:00 PM 28.4 °F 21.2 °F - N/A% 30.11 in - West 6.9 mph - N/A   Overcast
11:15 PM 28.4 °F 22.2 °F - N/A% 29.98 in - West 5.8 mph - N/A   Overcast
11:37 PM 28.4 °F 22.2 °F - N/A% 29.98 in - West 5.8 mph - N/A   Overcast
11:59 PM 28.4 °F 21.2 °F - N/A% 29.98 in - West 6.9 mph - N/A   Overcast